Roxboro, NC

10:13 AM EDT on June 26, 2017 (GMT -0400)
Person County

Weather History for KTDF - December, 2011

Change the Weather History Date:

Friday, December 23, 2011

  Actual Average Record
Temperature  
Mean Temperature 58 °F -  
Max Temperature 66 °F 48 °F 68 °F (2015)
Min Temperature 50 °F 27 °F 0 °F (1989)
Degree Days  
Heating Degree Days 7    
Growing Degree Days 8 (Base 50)    
Moisture  
Dew Point 44 °F    
Average Humidity 59    
Maximum Humidity 88    
Minimum Humidity 39    
Precipitation  
Precipitation 0.00 in - - ()
Sea Level Pressure  
Sea Level Pressure 30.07 in    
Wind  
Wind Speed 10 mph (NW)    
Max Wind Speed 18 mph    
Max Gust Speed 26 mph    
Visibility 10 miles    
Events      
Averages and records for this station are not official NWS values.
T = Trace of Precipitation, MM = Missing Value Source: NWS Daily Summary

Daily Weather History Graph

Daily Weather History Graph

Search for Another Location

Airport or City:

Trip Planner

Search our weather history database for the weather conditions in past years. The results will help you decide how hot, cold, wet, or windy it might be!

Date:

Astronomy

Dec. 23, 2011 Rise Set
Actual Time 7:24 AM EST 5:05 PM EST
Civil Twilight 6:55 AM EST 5:34 PM EST
Nautical Twilight 6:23 AM EST 6:06 PM EST
Astronomical Twilight 5:51 AM EST 6:37 PM EST
Moon 6:11 AM EST (12/23) 4:12 PM EST (12/23)
Length of Visible Light 10h 38m
Length of Day
9h 41m
Waning Crescent, 1% of the Moon is Illuminated
Dec 23
Waning Crescent
Dec 24
New
Jan 1
First Quarter
Jan 9
Full
Jan 16
Last Quarter

Hourly Weather History & Observations

Time (EST) Temp. Dew Point Humidity Pressure Visibility Wind Dir Wind Speed Gust Speed Precip Events Conditions
12:15 AM 64.4 °F 59.0 °F 83% 29.87 in 10.0 mi SSW 12.7 mph 20.7 mph N/A   Unknown
12:35 AM 66.2 °F 59.0 °F 78% 29.86 in 10.0 mi SSW 13.8 mph 20.7 mph N/A   Unknown
12:55 AM 66.2 °F 57.2 °F 73% 29.85 in 10.0 mi SW 17.3 mph 25.3 mph N/A   Unknown
1:15 AM 66.2 °F 57.2 °F 73% 29.85 in 10.0 mi SW 12.7 mph 24.2 mph N/A   Unknown
1:35 AM 66.2 °F 57.2 °F 73% 29.84 in 10.0 mi SW 18.4 mph 26.5 mph N/A   Unknown
1:55 AM 66.2 °F 57.2 °F 73% 29.85 in 10.0 mi SW 16.1 mph 23.0 mph N/A   Unknown
2:15 AM 66.2 °F 57.2 °F 73% 29.87 in 10.0 mi SW 15.0 mph 23.0 mph N/A   Unknown
2:35 AM 66.2 °F 57.2 °F 73% 29.89 in 10.0 mi WSW 15.0 mph 21.9 mph N/A   Unknown
2:55 AM 66.2 °F 57.2 °F 73% 29.90 in 10.0 mi WSW 15.0 mph - N/A   Unknown
3:15 AM 66.2 °F 57.2 °F 73% 29.91 in 10.0 mi WSW 12.7 mph 20.7 mph N/A   Unknown
3:35 AM 66.2 °F 57.2 °F 73% 29.91 in 10.0 mi WSW 12.7 mph 25.3 mph N/A   Unknown
3:55 AM 66.2 °F 57.2 °F 73% 29.92 in 10.0 mi WSW 10.4 mph 23.0 mph N/A   Unknown
4:15 AM 64.4 °F 59.0 °F 83% 29.93 in 7.0 mi West 8.1 mph - N/A   Unknown
4:35 AM 62.6 °F 59.0 °F 88% 29.94 in 10.0 mi WNW 8.1 mph 19.6 mph N/A   Unknown
4:55 AM 62.6 °F 55.4 °F 77% 29.96 in 7.0 mi NW 10.4 mph 18.4 mph N/A   Unknown
5:15 AM 59.0 °F 50.0 °F 72% 29.97 in 10.0 mi NNW 6.9 mph - N/A   Unknown
5:35 AM 57.2 °F 48.2 °F 72% 29.98 in 10.0 mi NW 6.9 mph - N/A   Unknown
5:55 AM 57.2 °F 46.4 °F 67% 30.00 in 10.0 mi NW 8.1 mph - N/A   Unknown
6:15 AM 57.2 °F 44.6 °F 63% 30.02 in 10.0 mi NW 6.9 mph - N/A   Unknown
6:35 AM 55.4 °F 44.6 °F 67% 30.04 in 10.0 mi NW 6.9 mph 17.3 mph N/A   Unknown
6:55 AM 55.4 °F 42.8 °F 63% 30.07 in 10.0 mi NW 8.1 mph 17.3 mph N/A   Unknown
7:15 AM 55.4 °F 42.8 °F 63% 30.08 in 10.0 mi NW 4.6 mph - N/A   Unknown
7:35 AM 53.6 °F 42.8 °F 67% 30.09 in 10.0 mi NW 3.5 mph - N/A   Unknown
7:55 AM 53.6 °F 42.8 °F 67% 30.09 in 10.0 mi Calm Calm - N/A   Unknown
8:15 AM 53.6 °F 42.8 °F 67% 30.10 in 10.0 mi NNW 4.6 mph - N/A   Unknown
8:35 AM 53.6 °F 42.8 °F 67% 30.11 in 10.0 mi NW 4.6 mph - N/A   Unknown
8:55 AM 55.4 °F 41.0 °F 58% 30.12 in 10.0 mi NNW 3.5 mph - N/A   Unknown
9:15 AM 55.4 °F 41.0 °F 58% 30.14 in 10.0 mi WNW 4.6 mph - N/A   Unknown
9:35 AM 55.4 °F 41.0 °F 58% 30.15 in 10.0 mi NW 6.9 mph - N/A   Unknown
9:55 AM 57.2 °F 39.2 °F 51% 30.16 in 10.0 mi NNW 6.9 mph - N/A   Unknown
10:15 AM 57.2 °F 39.2 °F 51% 30.16 in 10.0 mi NNW 6.9 mph - N/A   Unknown
10:35 AM 57.2 °F 39.2 °F 51% 30.16 in 10.0 mi NW 5.8 mph - N/A   Unknown
10:55 AM 57.2 °F 39.2 °F 51% 30.16 in 10.0 mi NW 6.9 mph - N/A   Unknown
11:15 AM 57.2 °F 39.2 °F 51% 30.15 in 10.0 mi NW 8.1 mph - N/A   Unknown
11:35 AM 59.0 °F 39.2 °F 48% 30.15 in 10.0 mi NNW 8.1 mph - N/A   Unknown
11:55 AM 59.0 °F 39.2 °F 48% 30.14 in 10.0 mi NW 4.6 mph - N/A   Unknown
12:15 PM 60.8 °F 39.2 °F 45% 30.13 in 10.0 mi NNW 8.1 mph - N/A   Unknown
12:35 PM 60.8 °F 39.2 °F 45% 30.12 in 10.0 mi NNW 8.1 mph - N/A   Unknown
12:55 PM 60.8 °F 39.2 °F 45% 30.12 in 10.0 mi NW 6.9 mph - N/A   Unknown
1:15 PM 60.8 °F 37.4 °F 42% 30.12 in 10.0 mi North 4.6 mph - N/A   Unknown
1:35 PM 60.8 °F 37.4 °F 42% 30.12 in 10.0 mi NW 8.1 mph 17.3 mph N/A   Unknown
1:55 PM 60.8 °F 35.6 °F 39% 30.12 in 10.0 mi North 9.2 mph - N/A   Unknown
2:15 PM 60.8 °F 35.6 °F 39% 30.13 in 10.0 mi NW 6.9 mph - N/A   Unknown
2:35 PM 60.8 °F 35.6 °F 39% 30.13 in 10.0 mi NNW 8.1 mph 16.1 mph N/A   Unknown
2:55 PM 60.8 °F 35.6 °F 39% 30.13 in 10.0 mi North 8.1 mph - N/A   Unknown
3:15 PM 60.8 °F 35.6 °F 39% 30.13 in 10.0 mi NNW 6.9 mph - N/A   Unknown
3:35 PM 60.8 °F 37.4 °F 42% 30.14 in 10.0 mi NNW 3.5 mph - N/A   Unknown
3:55 PM 57.2 °F 37.4 °F 48% 30.15 in 10.0 mi NNW 6.9 mph - N/A   Unknown
4:15 PM 57.2 °F 37.4 °F 48% 30.16 in 10.0 mi NNW 5.8 mph - N/A   Unknown
4:35 PM 57.2 °F 37.4 °F 48% 30.17 in 10.0 mi NNW 4.6 mph - N/A   Unknown
4:55 PM 55.4 °F 37.4 °F 51% 30.18 in 10.0 mi NNW 5.8 mph - N/A   Unknown
5:15 PM 53.6 °F 37.4 °F 54% 30.19 in 10.0 mi NNW 3.5 mph - N/A   Unknown
5:35 PM 53.6 °F 37.4 °F 54% 30.20 in 10.0 mi NNW 4.6 mph - N/A   Unknown
5:55 PM 53.6 °F 37.4 °F 54% 30.21 in 10.0 mi NNW 5.8 mph - N/A   Unknown
6:15 PM 51.8 °F 37.4 °F 58% 30.22 in 10.0 mi Calm Calm - N/A   Unknown
6:35 PM 51.8 °F 37.4 °F 58% 30.22 in 10.0 mi NNW 3.5 mph - N/A   Unknown
6:55 PM 50.0 °F 37.4 °F 62% 30.23 in 10.0 mi NW 4.6 mph - N/A   Unknown
7:15 PM 50.0 °F 35.6 °F 58% 30.24 in 10.0 mi Calm Calm - N/A   Unknown
7:35 PM 48.2 °F 35.6 °F 62% 30.25 in 10.0 mi WNW 4.6 mph - N/A   Unknown
7:55 PM 48.2 °F 35.6 °F 62% 30.26 in 10.0 mi Calm Calm - N/A   Unknown
8:15 PM 48.2 °F 35.6 °F 62% 30.26 in 10.0 mi Calm Calm - N/A   Unknown
8:35 PM 48.2 °F 35.6 °F 62% 30.27 in 10.0 mi Calm Calm - N/A   Unknown
8:55 PM 46.4 °F 35.6 °F 66% 30.27 in 10.0 mi Calm Calm - N/A   Unknown
9:15 PM 46.4 °F 35.6 °F 66% 30.27 in 10.0 mi Calm Calm - N/A   Unknown
9:35 PM 46.4 °F 33.8 °F 62% 30.27 in 10.0 mi Calm Calm - N/A   Unknown
9:55 PM 42.8 °F 35.6 °F 76% 30.27 in 10.0 mi Calm Calm - N/A   Unknown
10:15 PM 41.0 °F 35.6 °F 81% 30.27 in 10.0 mi Calm Calm - N/A   Unknown
10:35 PM 39.2 °F 33.8 °F 81% 30.28 in 10.0 mi Calm Calm - N/A   Unknown
10:55 PM 39.2 °F 35.6 °F 87% 30.28 in 10.0 mi Calm Calm - N/A   Unknown
11:15 PM 39.2 °F 35.6 °F 87% 30.28 in 10.0 mi Calm Calm - N/A   Unknown
11:35 PM 37.4 °F 35.6 °F 93% 30.28 in 10.0 mi Calm Calm - N/A   Unknown
11:55 PM 37.4 °F 35.6 °F 93% 30.28 in 10.0 mi Calm Calm - N/A   Unknown